Weather in Lyatoshinka

Russia / Volgograd Oblast     50°36′51″N   46°33′23″E
temp.,
°C
wind,
m/s
gust,
m/s
humid.,
%
clouds,
%
prec.,
mm/h
press.,
hPa
HPBL,
m
19 january, wed
wed1900:000sse71497100 1.2 1013572
03:000s71395100 1.4 1013524
06:00−1s61198100 1.1 1013461
09:00−1ssw5997100 1.5 1015396
12:000sw5787100 0.1 1016698
15:00−1sw2490100 0.1 1017259
18:00−4wnw3396100 0.0 101739
21:00−5e1194100 0.1 101811
20 january, thu
thu2000:00−9wnw2296100 0.0 101821
03:00−10nw229793 0.0 101922
06:00−13wnw229899 0.0 101914
09:00−14nw329873 0.1 102026
12:00−9wnw11905 0.0 102054
15:00−11wnw22935 0.0 101910
18:00−17nnw11985 0.0 10209
21:00−19ese0010054 0.0 10209
21 january, fri
fri2100:00−20wsw1110085 0.0 10219
03:00−21sw11100100 0.0 10219
06:00−21ese22100100 0.0 10209
09:00−19s22100100 0.1 102138
12:00−11sse3596100 0.0 1020141
15:00−10se4995100 0.1 1018199
18:00−9se51294100 0.0 1017267
21:00−7se7149499 0.1 1016392
22 january, sat
sat2200:00−5sse71495100 0.4 1015408
03:00−4sse71496100 1.9 1014445
06:00−2s61297100 1.1 1014441
09:00−1ssw4798100 2.8 1016360
12:00−1s4697100 1.0 1017396
15:00−1sse51198100 3.3 1018614
18:00−1sse81496100 2.1 1019591
21:00−3sse81496100 2.9 1020524
23 january, sun
sun2300:00−3sse61292100 1.0 1021447
03:00−4se5991100 1.4 1022330
06:00−6ese4895100 0.0 1022160
09:00−5e4896100 0.4 1023278
12:00−4e5996100 2.3 1023377
15:00−3e51190100 2.7 1024427
18:00−5e61289100 0.0 1025314
21:00−7e51288100 0.0 1026264